Westfield, MA

6:33 AM EST on February 10, 2016 (GMT -0500)
Barnes Municipal

Weather History for KBAF - March, 2013

Change the Weather History Date:

Friday, March 15, 2013

  Actual Average (KBDL) Record (KBDL)
Temperature  
Mean Temperature 34 °F 37 °F  
Max Temperature 43 °F 47 °F 73 °F (1990)
Min Temperature 25 °F 27 °F 6 °F (1993)
Degree Days  
Heating Degree Days 32 28  
Month to date heating degree days 449  
Since 1 July heating degree days 4887  
Cooling Degree Days 0 0  
Month to date cooling degree days 0  
Year to date cooling degree days 0  
Moisture  
Dew Point 17 °F    
Average Humidity 55    
Maximum Humidity 87    
Minimum Humidity 28    
Precipitation  
Precipitation 0.00 in 0.11 in 1.69 in (1953)
Month to date precipitation 1.65  
Year to date precipitation 7.77  
Snow  
Snow 0.00 in 0.20 in 10.00 in (1967)
Month to date snowfall 3.7  
Since 1 July snowfall 36.4  
Snow Depth -    
Sea Level Pressure  
Sea Level Pressure 29.78 in    
Wind  
Wind Speed 12 mph (West)    
Max Wind Speed 20 mph    
Max Gust Speed 29 mph    
Visibility 8 miles    
Events Snow    
T = Trace of Precipitation, MM = Missing Value Source: NWS Daily Summary

Daily Weather History Graph

Daily Weather History Graph

Search for Another Location

Airport or City:

Trip Planner

Search our weather history database for the weather conditions in past years. The results will help you decide how hot, cold, wet, or windy it might be!

Date:

Astronomy

Mar. 15, 2013 Rise Set
Actual Time 7:02 AM EDT 6:57 PM EDT
Civil Twilight 6:34 AM EDT 7:25 PM EDT
Nautical Twilight 6:02 AM EDT 7:58 PM EDT
Astronomical Twilight 5:29 AM EDT 8:31 PM EDT
Moon 8:46 AM EDT (3/15) 11:14 PM EDT (3/15)
Length of Visible Light 12h 51m
Length of Day
11h 55m
Waxing Crescent, 15% of the Moon is Illuminated
Mar 15
Waxing Crescent
Mar 19
First Quarter
Mar 27
Full
Apr 3
Last Quarter
Apr 10
New

Hourly Weather History & Observations

Time (EDT) Temp. Windchill Dew Point Humidity Pressure Visibility Wind Dir Wind Speed Gust Speed Precip Events Conditions
12:53 AM 27.0 °F 16.7 °F 15.1 °F 61% 29.89 in 10.0 mi NNW 11.5 mph 23.0 mph N/A   Overcast
1:53 AM 28.0 °F 16.1 °F 10.9 °F 49% 29.89 in 10.0 mi NNW 16.1 mph 28.8 mph N/A   Mostly Cloudy
2:53 AM 27.0 °F 15.6 °F 10.0 °F 49% 29.90 in 10.0 mi NNW 13.8 mph 23.0 mph N/A   Mostly Cloudy
3:53 AM 26.1 °F 12.7 °F 7.0 °F 44% 29.89 in 10.0 mi NNW 18.4 mph 23.0 mph N/A   Clear
4:53 AM 25.0 °F 11.3 °F 6.1 °F 45% 29.89 in 10.0 mi NW 18.4 mph 25.3 mph N/A   Clear
5:53 AM 25.0 °F 13.1 °F 5.0 °F 43% 29.90 in 10.0 mi NW 13.8 mph - N/A   Clear
6:53 AM 25.0 °F 14.2 °F 3.9 °F 41% 29.90 in 10.0 mi NW 11.5 mph 19.6 mph N/A   Clear
7:53 AM 25.0 °F 18.1 °F 5.0 °F 43% 29.91 in 10.0 mi NNW 5.8 mph 16.1 mph N/A   Clear
8:53 AM 26.1 °F 14.0 °F 6.1 °F 43% 29.91 in 10.0 mi WNW 15.0 mph 18.4 mph N/A   Clear
9:53 AM 28.9 °F 22.8 °F 6.1 °F 38% 29.90 in 10.0 mi West 5.8 mph - N/A   Clear
10:53 AM 32.0 °F 25.6 °F 10.0 °F 40% 29.87 in 10.0 mi Variable 6.9 mph - N/A   Clear
11:53 AM 36.0 °F 30.3 °F 10.0 °F 34% 29.83 in 10.0 mi WNW 6.9 mph - N/A   Overcast
11:55 AM 35.6 °F 29.2 °F 10.4 °F 35% 29.81 in 10.0 mi WSW 8.1 mph - N/A   Scattered Clouds
12:53 PM 37.0 °F 33.3 °F 6.1 °F 28% 29.78 in 10.0 mi WSW 4.6 mph - N/A   Overcast
1:53 PM 41.0 °F 34.3 °F 14.0 °F 33% 29.74 in 10.0 mi WNW 11.5 mph 21.9 mph N/A   Overcast
2:53 PM 42.1 °F 33.9 °F 15.1 °F 34% 29.70 in 10.0 mi West 17.3 mph 25.3 mph N/A   Overcast
3:53 PM 39.0 °F 29.6 °F 23.0 °F 53% 29.70 in 10.0 mi SW 18.4 mph 24.2 mph N/A   Overcast
3:59 PM 39.2 °F 29.8 °F 24.8 °F 56% 29.68 in 5.0 mi SW 18.4 mph 24.2 mph 0.00 in   Unknown
4:49 PM 37.4 °F 28.9 °F 26.6 °F 65% 29.67 in 5.0 mi SW 13.8 mph 18.4 mph 0.00 in Snow Light Snow
4:53 PM 37.9 °F 30.9 °F 26.1 °F 62% 29.69 in 5.0 mi SW 10.4 mph 18.4 mph 0.00 in Snow Light Snow
5:53 PM 37.0 °F 28.1 °F 27.0 °F 67% 29.69 in 9.0 mi WSW 15.0 mph 20.7 mph 0.00 in Snow Light Snow
6:53 PM 36.0 °F 28.5 °F 27.0 °F 70% 29.69 in 9.0 mi SW 10.4 mph 19.6 mph 0.00 in Snow Light Snow
7:53 PM 35.1 °F 28.6 °F 27.0 °F 72% 29.70 in 9.0 mi SW 8.1 mph - 0.00 in Snow Light Snow
8:53 PM 32.0 °F 25.6 °F 26.1 °F 79% 29.70 in 9.0 mi SSW 6.9 mph - 0.00 in Snow Light Snow
9:53 PM 35.1 °F 29.3 °F 26.1 °F 70% 29.70 in 9.0 mi SW 6.9 mph - 0.00 in Snow Light Snow
10:24 PM 33.8 °F 23.5 °F 28.4 °F 81% 29.70 in 1.8 mi NNW 16.1 mph 23.0 mph 0.00 in Snow Light Snow
10:32 PM 33.8 °F 25.8 °F 30.2 °F 87% 29.71 in 1.0 mi WNW 10.4 mph 23.0 mph 0.00 in Snow Light Snow
10:43 PM 33.8 °F 25.3 °F 28.4 °F 81% 29.70 in 3.0 mi West 11.5 mph 28.8 mph 0.00 in Snow Light Snow
10:53 PM 34.0 °F 26.6 °F 28.9 °F 82% 29.72 in 7.0 mi West 9.2 mph - 0.00 in Snow Light Snow
11:53 PM 35.1 °F 24.1 °F 21.9 °F 59% 29.73 in 9.0 mi NW 19.6 mph 24.2 mph 0.00 in Snow Light Snow